Back to catalog

STARLINK-5222

AliveCommunicationsVLEO
NORAD 54068·PAYLOAD·🇺🇸 United States

Launched Oct 20, 2022 from Cape Canaveral Space Force Station

Loading…

Next Passes (next 24 hours)

TLE

FreshSource: CelesTrak SupGP

Epoch: Sep 14, 2026, 21:18 UTC

1 54068C 22136T   26257.88798611  .00009963  00000+0  28506-3 0  2574
2 54068  53.1580 205.7469 0001474 103.1530 349.8852 15.35391090    15

Track STARLINK-5222 in real time with AllMySat

Download on the App Store